User: anonymous   Login
Location: Lourdes
(43.1000°N, 0.0500°W)
Time: 18:49:45
(UTC+00:00)
Language:

SL-24 R/B - Orbit

View from above orbital plane
View from above orbital plane
View from above satellite
View from above satellite

Ground track
Ground track

The orbit data is extracted from the following two-line orbital elements,

1 39228U 13042B   21172.32825184  .00000589  00000-0  14494-3 0  9997
2 39228  97.5494 289.9184 0458570 120.6294 244.0929 14.06332359398059
Epoch (UTC): 21 June 2021 07:52:40
Eccentricity: 0.0458570
inclination: 97.5494°
perigee height: 539 km
apogee height: 1204 km
right ascension of ascending node: 289.9184°
argument of perigee: 120.6294°
revolutions per day: 14.06332359
mean anomaly at epoch: 244.0929°
orbit number at epoch: 39805

The dashed part of the orbit path shows where the satellite is in the earth's shadow,  

DLR